Notices

What's New in latest Release from April 7th, 2021:

- Updated Glossary, including Speed of Maximum Gust, and Total Hourly Precipitation

- Updated national and regional climate services offices contacts and prices information

- Addition of station inventory lists for 1981-2010, 1971-2000, and 1961-1990 Normals.

If you haven't already, please take our survey and provide feedback about our website: https://eccc.sondage-survey.ca/f/LanguageSelection.aspx?s=442ca660-fcf1-47c0-95a9-59707d6fd709

Hourly Data Report for October 05, 2020

MUSKOKA
ONTARIO
Current Station Operator: NAVCAN

44°58'29.000" N
79°18'12.000" W
281.90 m
6115529
71532
YQA

Download Data

Hourly Data (October 2020)
Hourly Data Report for October 5, 2020
TIME
LST
Temp Definition
°C
Dew Point Definition
°C
Rel Hum Definition
%
Precip. Amount Definition
mm

Wind Dir Definition
10's deg

Wind Spd Definition
km/h
Visibility Definition
km
Stn Press Definition
kPa
Hmdx Definition


Wind Chill Definition


Weather Definition


00:00 6.8 6.5 98 0.0 33 5 16.1 98.48     LegendNANA
01:00 6.7 6.3 97 0.0 34 5 16.1 98.48     LegendNANA
02:00 6.7 6.3 97 0.0 35 5 16.1 98.51     LegendNANA
03:00 6.8 6.4 97 0.0 33 9 16.1 98.54     LegendNANA
04:00 7.0 6.6 97 0.0 32 8 16.1 98.58     LegendNANA
05:00 6.3 6.0 98 0.0 33 5 16.1 98.64     LegendNANA
06:00 6.2 5.9 98 0.0 31 5 16.1 98.70     LegendNANA
07:00 6.3 6.0 98 0.0 31 9 16.1 98.75     LegendNANA
08:00 7.2 6.0 92 0.0 33 11 16.1 98.77     LegendNANA
09:00 7.5 6.0 90 0.0 33 15 16.1 98.83     LegendNANA
10:00 8.8 5.4 79 0.0 33 11 16.1 98.84     LegendNANA
11:00 10.3 4.3 66 0.0 33 5 16.1 98.81     LegendNANA
12:00 12.0 5.0 62 0.0 31 11 16.1 98.79     LegendNANA
13:00 12.8 4.8 58 0.0 28 9 16.1 98.73     LegendNANA
14:00 12.8 3.9 54 0.0 28 15 16.1 98.67     LegendNANA
15:00 13.0 3.6 53 0.0 23 15 16.1 98.62     LegendNANA
16:00 12.3 4.6 59 0.0 25 5 16.1 98.54     LegendNANA
17:00 11.8 4.6 61 0.0 24 5 16.1 98.50     LegendNANA
18:00 8.0 5.7 85 0.0 19 4 16.1 98.47     LegendNANA
19:00 5.8 5.1 95 0.0 16 4 16.1 98.43     LegendNANA
20:00 5.9 5.0 94 0.0 14 8 16.1 98.40     LegendNANA
21:00 5.6 4.1 90 0.0 16 9 16.1 98.35     LegendNANA
22:00 5.1 4.2 94 0.0 15 9 16.1 98.34     LegendNANA
23:00 5.6 4.9 95 0.0 15 5 16.1 98.34     LegendNANA

Notes on Data Quality.

Legend

  • E = Estimated
  • M = Missing
  • NA = Not Available*
  • [empty] = Indicates an unobserved value
Date modified: